Time,TemperatureF,DewpointF,PressureIn,WindDirection,WindDirectionDegrees,WindSpeedMPH,WindSpeedGustMPH,Humidity,HourlyPrecipIn,Conditions,Clouds,dailyrainin,SoftwareType,DateUTC
2013-04-18 00:00:00,60.7,55.8,30.06,SSW,200,1.0,1.0,84,0.00,,,0.22,Wunderground v.1.15,2013-04-18 04:00:00,
2013-04-18 00:05:00,60.7,55.8,30.06,SSW,200,0.0,5.0,84,0.00,,,0.22,Wunderground v.1.15,2013-04-18 04:05:00,
2013-04-18 00:15:00,60.6,55.4,30.06,SSW,195,1.0,5.0,83,0.00,,,0.22,Wunderground v.1.15,2013-04-18 04:15:00,
2013-04-18 00:25:00,60.7,55.5,30.05,SSW,197,2.0,3.0,83,0.00,,,0.22,Wunderground v.1.15,2013-04-18 04:25:00,
2013-04-18 00:30:00,60.6,55.7,30.06,SSW,198,2.0,5.0,84,0.00,,,0.22,Wunderground v.1.15,2013-04-18 04:30:00,
2013-04-18 00:35:00,60.4,55.5,30.06,SSW,197,1.0,5.0,84,0.00,,,0.22,Wunderground v.1.15,2013-04-18 04:35:00,
2013-04-18 00:40:00,60.3,55.4,30.06,SSW,197,1.0,5.0,84,0.00,,,0.22,Wunderground v.1.15,2013-04-18 04:40:00,
2013-04-18 00:45:00,60.3,55.4,30.05,SSW,207,1.0,5.0,84,0.00,,,0.22,Wunderground v.1.15,2013-04-18 04:45:00,
2013-04-18 00:50:00,60.3,55.4,30.05,SW,230,1.0,1.0,84,0.00,,,0.22,Wunderground v.1.15,2013-04-18 04:50:00,
2013-04-18 00:55:00,60.3,55.4,30.05,SSW,194,0.0,4.0,84,0.00,,,0.22,Wunderground v.1.15,2013-04-18 04:55:00,
2013-04-18 01:05:00,60.9,55.7,30.04,West,267,1.0,8.0,83,0.00,,,0.22,Wunderground v.1.15,2013-04-18 05:05:00,
2013-04-18 01:15:00,61.4,55.5,30.04,SSW,198,0.0,8.0,81,0.00,,,0.22,Wunderground v.1.15,2013-04-18 05:15:00,
2013-04-18 01:20:00,61.7,55.8,30.03,SSW,200,0.0,8.0,81,0.00,,,0.22,Wunderground v.1.15,2013-04-18 05:20:00,
2013-04-18 01:30:00,61.7,55.5,30.03,South,185,0.0,8.0,80,0.00,,,0.22,Wunderground v.1.15,2013-04-18 05:30:00,
2013-04-18 01:35:00,61.6,55.7,30.03,South,185,0.0,8.0,81,0.00,,,0.22,Wunderground v.1.15,2013-04-18 05:35:00,
2013-04-18 01:40:00,61.3,55.4,30.03,South,185,0.0,8.0,81,0.00,,,0.22,Wunderground v.1.15,2013-04-18 05:40:00,
2013-04-18 01:50:00,60.9,55.4,30.02,SW,220,0.0,8.0,82,0.00,,,0.00,Wunderground v.1.15,2013-04-18 05:50:00,
2013-04-18 02:00:00,60.5,55.0,30.02,SW,223,0.0,8.0,82,0.00,,,0.00,Wunderground v.1.15,2013-04-18 06:00:00,
2013-04-18 02:05:00,60.5,55.0,30.02,West,262,0.0,8.0,82,0.00,,,0.00,Wunderground v.1.15,2013-04-18 06:05:00,
2013-04-18 02:15:00,60.6,55.1,30.02,SSW,194,0.0,4.0,82,0.00,,,0.00,Wunderground v.1.15,2013-04-18 06:15:00,
2013-04-18 02:20:00,60.6,55.1,30.03,SSW,194,0.0,4.0,82,0.00,,,0.00,Wunderground v.1.15,2013-04-18 06:20:00,
2013-04-18 02:30:00,60.4,55.2,30.04,SSW,194,0.0,4.0,83,0.00,,,0.00,Wunderground v.1.15,2013-04-18 06:30:00,
2013-04-18 02:35:00,60.2,55.7,30.04,SSW,194,0.0,4.0,85,0.00,,,0.00,Wunderground v.1.15,2013-04-18 06:35:00,
2013-04-18 02:40:00,59.9,55.7,30.04,SSW,194,0.0,4.0,86,0.00,,,0.00,Wunderground v.1.15,2013-04-18 06:40:00,
2013-04-18 02:45:00,59.5,55.9,30.05,SSW,194,0.0,4.0,88,0.00,,,0.00,Wunderground v.1.15,2013-04-18 06:45:00,
2013-04-18 02:50:00,59.0,55.8,30.05,SSW,195,0.0,4.0,89,0.00,,,0.00,Wunderground v.1.15,2013-04-18 06:50:00,
2013-04-18 02:55:00,59.0,56.1,30.04,SSW,195,1.0,4.0,90,0.00,,,0.00,Wunderground v.1.15,2013-04-18 06:55:00,
2013-04-18 03:00:00,58.7,55.8,30.05,South,188,1.0,4.0,90,0.00,,,0.00,Wunderground v.1.15,2013-04-18 07:00:00,
2013-04-18 03:05:00,58.5,55.9,30.04,South,169,1.0,4.0,91,0.00,,,0.00,Wunderground v.1.15,2013-04-18 07:05:00,
2013-04-18 03:15:00,58.4,55.8,30.05,South,190,1.0,4.0,91,0.00,,,0.00,Wunderground v.1.15,2013-04-18 07:15:00,
2013-04-18 03:20:00,58.4,55.8,30.05,SSE,162,0.0,4.0,91,0.00,,,0.00,Wunderground v.1.15,2013-04-18 07:20:00,
2013-04-18 03:25:00,58.5,55.9,30.04,South,175,0.0,4.0,91,0.00,,,0.00,Wunderground v.1.15,2013-04-18 07:25:00,
2013-04-18 03:35:00,58.9,55.7,30.04,SSW,202,1.0,4.0,89,0.00,,,0.00,Wunderground v.1.15,2013-04-18 07:35:00,
2013-04-18 03:40:00,59.0,55.8,30.05,SSW,203,1.0,1.0,89,0.00,,,0.00,Wunderground v.1.15,2013-04-18 07:40:00,
2013-04-18 03:50:00,59.0,55.8,30.05,SSW,208,0.0,4.0,89,0.00,,,0.00,Wunderground v.1.15,2013-04-18 07:50:00,
2013-04-18 03:55:00,59.0,55.8,30.05,SSW,200,0.0,4.0,89,0.00,,,0.00,Wunderground v.1.15,2013-04-18 07:55:00,
2013-04-18 04:00:00,59.0,55.4,30.05,SSW,195,1.0,1.0,88,0.00,,,0.00,Wunderground v.1.15,2013-04-18 08:00:00,
2013-04-18 04:05:00,59.1,55.5,30.04,SSW,206,0.0,6.0,88,0.00,,,0.00,Wunderground v.1.15,2013-04-18 08:05:00,
2013-04-18 04:15:00,59.4,55.8,30.05,SSW,210,0.0,6.0,88,0.00,,,0.00,Wunderground v.1.15,2013-04-18 08:15:00,
2013-04-18 04:20:00,59.4,55.8,30.05,South,175,0.0,6.0,88,0.00,,,0.00,Wunderground v.1.15,2013-04-18 08:20:00,
2013-04-18 04:25:00,59.5,55.9,30.05,SE,126,1.0,6.0,88,0.00,,,0.00,Wunderground v.1.15,2013-04-18 08:25:00,
2013-04-18 04:30:00,59.6,56.0,30.05,South,170,1.0,1.0,88,0.00,,,0.00,Wunderground v.1.15,2013-04-18 08:30:00,
2013-04-18 04:40:00,59.8,56.2,30.05,SSW,210,0.0,6.0,88,0.00,,,0.00,Wunderground v.1.15,2013-04-18 08:40:00,
2013-04-18 04:45:00,59.8,56.2,30.05,South,182,1.0,6.0,88,0.00,,,0.00,Wunderground v.1.15,2013-04-18 08:45:00,
2013-04-18 04:50:00,59.8,56.2,30.05,SSW,194,2.0,2.0,88,0.00,,,0.00,Wunderground v.1.15,2013-04-18 08:50:00,
2013-04-18 04:55:00,59.8,56.2,30.05,SSW,193,2.0,4.0,88,0.00,,,0.00,Wunderground v.1.15,2013-04-18 08:55:00,
2013-04-18 05:00:00,59.7,56.1,30.05,SSW,196,2.0,2.0,88,0.00,,,0.00,Wunderground v.1.15,2013-04-18 09:00:00,
2013-04-18 05:05:00,59.6,56.0,30.05,SW,221,1.0,10.0,88,0.00,,,0.00,Wunderground v.1.15,2013-04-18 09:05:00,
2013-04-18 05:15:00,59.4,56.2,30.04,NNW,327,0.0,10.0,89,0.00,,,0.00,Wunderground v.1.15,2013-04-18 09:15:00,
2013-04-18 05:25:00,59.0,55.8,30.04,South,183,0.0,10.0,89,0.00,,,0.00,Wunderground v.1.15,2013-04-18 09:25:00,
2013-04-18 05:30:00,59.0,56.1,30.04,SE,133,0.0,10.0,90,0.00,,,0.00,Wunderground v.1.15,2013-04-18 09:30:00,
2013-04-18 05:40:00,59.2,56.3,30.04,South,180,1.0,1.0,90,0.00,,,0.00,Wunderground v.1.15,2013-04-18 09:40:00,
2013-04-18 05:45:00,59.2,56.3,30.04,South,182,1.0,3.0,90,0.00,,,0.00,Wunderground v.1.15,2013-04-18 09:45:00,
2013-04-18 05:50:00,59.4,56.8,30.04,SSW,209,1.0,1.0,91,0.00,,,0.00,Wunderground v.1.15,2013-04-18 09:50:00,
2013-04-18 05:55:00,59.5,56.9,30.04,West,265,1.0,10.0,91,0.00,,,0.00,Wunderground v.1.15,2013-04-18 09:55:00,
2013-04-18 06:00:00,59.6,57.0,30.05,East,97,0.0,10.0,91,0.00,,,0.00,Wunderground v.1.15,2013-04-18 10:00:00,
2013-04-18 06:05:00,59.5,56.9,30.05,SSE,152,0.0,10.0,91,0.00,,,0.00,Wunderground v.1.15,2013-04-18 10:05:00,
2013-04-18 06:15:00,59.6,57.3,30.04,SSW,192,1.0,9.0,92,0.00,,,0.00,Wunderground v.1.15,2013-04-18 10:15:00,
2013-04-18 06:20:00,59.6,57.3,30.04,SSW,196,1.0,1.0,92,0.00,,,0.00,Wunderground v.1.15,2013-04-18 10:20:00,
2013-04-18 06:25:00,59.7,57.4,30.04,SSW,196,0.0,9.0,92,0.00,,,0.00,Wunderground v.1.15,2013-04-18 10:25:00,
2013-04-18 06:35:00,59.6,57.3,30.04,SSE,167,1.0,9.0,92,0.00,,,0.00,Wunderground v.1.15,2013-04-18 10:35:00,
2013-04-18 06:40:00,59.6,57.3,30.04,West,260,0.0,9.0,92,0.00,,,0.00,Wunderground v.1.15,2013-04-18 10:40:00,
2013-04-18 06:45:00,59.6,57.3,30.04,ENE,67,1.0,9.0,92,0.00,,,0.00,Wunderground v.1.15,2013-04-18 10:45:00,
2013-04-18 06:50:00,59.6,57.3,30.04,ESE,103,0.0,9.0,92,0.00,,,0.00,Wunderground v.1.15,2013-04-18 10:50:00,
2013-04-18 07:00:00,59.6,57.3,30.05,East,98,1.0,1.0,92,0.00,,,0.00,Wunderground v.1.15,2013-04-18 11:00:00,
2013-04-18 07:05:00,59.5,57.2,30.05,SSW,198,0.0,9.0,92,0.00,,,0.00,Wunderground v.1.15,2013-04-18 11:05:00,
2013-04-18 07:15:00,59.5,57.2,30.05,SSW,194,0.0,9.0,92,0.00,,,0.00,Wunderground v.1.15,2013-04-18 11:15:00,
2013-04-18 07:25:00,59.6,57.3,30.05,South,187,1.0,9.0,92,0.00,,,0.00,Wunderground v.1.15,2013-04-18 11:25:00,
2013-04-18 07:30:00,59.6,57.3,30.05,South,181,1.0,9.0,92,0.00,,,0.00,Wunderground v.1.15,2013-04-18 11:30:00,
2013-04-18 07:35:00,59.6,57.6,30.05,South,169,2.0,9.0,93,0.00,,,0.00,Wunderground v.1.15,2013-04-18 11:35:00,
2013-04-18 07:40:00,59.7,57.7,30.05,South,175,1.0,9.0,93,0.00,,,0.00,Wunderground v.1.15,2013-04-18 11:40:00,
2013-04-18 07:45:00,59.8,57.8,30.05,ENE,73,1.0,9.0,93,0.00,,,0.00,Wunderground v.1.15,2013-04-18 11:45:00,
2013-04-18 07:55:00,59.9,57.9,30.05,South,186,1.0,9.0,93,0.00,,,0.00,Wunderground v.1.15,2013-04-18 11:55:00,
2013-04-18 08:00:00,60.0,58.0,30.05,South,176,1.0,1.0,93,0.00,,,0.00,Wunderground v.1.15,2013-04-18 12:00:00,
2013-04-18 08:05:00,60.1,57.8,30.06,SSE,157,1.0,2.0,92,0.00,,,0.00,Wunderground v.1.15,2013-04-18 12:05:00,
2013-04-18 08:15:00,60.3,58.0,30.05,South,189,1.0,9.0,92,0.00,,,0.00,Wunderground v.1.15,2013-04-18 12:15:00,
2013-04-18 08:20:00,60.4,58.1,30.06,South,191,1.0,9.0,92,0.00,,,0.00,Wunderground v.1.15,2013-04-18 12:20:00,
2013-04-18 08:25:00,60.5,58.2,30.05,SSE,159,1.0,9.0,92,0.00,,,0.00,Wunderground v.1.15,2013-04-18 12:25:00,
2013-04-18 08:35:00,60.6,58.3,30.05,SW,236,1.0,9.0,92,0.00,,,0.00,Wunderground v.1.15,2013-04-18 12:35:00,
2013-04-18 08:40:00,60.7,58.4,30.06,South,171,1.0,9.0,92,0.00,,,0.00,Wunderground v.1.15,2013-04-18 12:40:00,
2013-04-18 08:50:00,60.9,58.3,30.05,South,180,0.0,9.0,91,0.00,,,0.00,Wunderground v.1.15,2013-04-18 12:50:00,
2013-04-18 08:55:00,61.1,58.8,30.06,South,184,1.0,9.0,92,0.00,,,0.00,Wunderground v.1.15,2013-04-18 12:55:00,
2013-04-18 09:00:00,61.2,58.6,30.06,SSW,205,2.0,2.0,91,0.00,,,0.00,Wunderground v.1.15,2013-04-18 13:00:00,
2013-04-18 09:05:00,61.3,58.7,30.06,SSW,201,2.0,5.0,91,0.00,,,0.00,Wunderground v.1.15,2013-04-18 13:05:00,
2013-04-18 09:15:00,61.4,58.7,30.06,South,171,3.0,9.0,91,0.00,,,0.00,Wunderground v.1.15,2013-04-18 13:15:00,
2013-04-18 09:20:00,61.4,58.4,30.06,SSW,192,4.0,9.0,90,0.00,,,0.00,Wunderground v.1.15,2013-04-18 13:20:00,
2013-04-18 09:25:00,61.4,58.7,30.06,South,188,4.0,9.0,91,0.00,,,0.00,Wunderground v.1.15,2013-04-18 13:25:00,
2013-04-18 09:30:00,61.5,58.5,30.06,South,169,3.0,9.0,90,0.00,,,0.00,Wunderground v.1.15,2013-04-18 13:30:00,
2013-04-18 09:40:00,61.8,58.8,30.06,South,186,3.0,3.0,90,0.00,,,0.00,Wunderground v.1.15,2013-04-18 13:40:00,
2013-04-18 09:45:00,61.9,58.6,30.05,South,185,2.0,9.0,89,0.00,,,0.00,Wunderground v.1.15,2013-04-18 13:45:00,
2013-04-18 09:50:00,62.0,58.4,30.06,South,185,3.0,9.0,88,0.00,,,0.00,Wunderground v.1.15,2013-04-18 13:50:00,
2013-04-18 10:00:00,62.5,58.3,30.06,SSE,167,3.0,12.0,86,0.00,,,0.00,Wunderground v.1.15,2013-04-18 14:00:00,
2013-04-18 10:10:00,62.8,58.2,30.06,South,188,3.0,14.0,85,0.00,,,0.00,Wunderground v.1.15,2013-04-18 14:10:00,
2013-04-18 10:15:00,62.9,58.0,30.05,SSW,198,3.0,14.0,84,0.00,,,0.00,Wunderground v.1.15,2013-04-18 14:15:00,
2013-04-18 10:25:00,62.9,58.0,30.05,SSE,165,4.0,14.0,84,0.00,,,0.00,Wunderground v.1.15,2013-04-18 14:25:00,
2013-04-18 10:30:00,63.0,58.1,30.05,SSE,157,3.0,14.0,84,0.00,,,0.00,Wunderground v.1.15,2013-04-18 14:30:00,
2013-04-18 10:35:00,63.1,57.9,30.06,SSE,149,4.0,14.0,83,0.00,,,0.00,Wunderground v.1.15,2013-04-18 14:35:00,
2013-04-18 10:40:00,63.2,57.9,30.05,SSW,195,5.0,14.0,83,0.00,,,0.00,Wunderground v.1.15,2013-04-18 14:40:00,
2013-04-18 10:45:00,63.4,58.1,30.05,SSW,205,3.0,14.0,83,0.00,,,0.00,Wunderground v.1.15,2013-04-18 14:45:00,
2013-04-18 10:55:00,63.9,58.3,30.05,South,179,5.0,7.0,82,0.00,,,0.00,Wunderground v.1.15,2013-04-18 14:55:00,
2013-04-18 11:00:00,64.1,58.1,30.05,South,190,4.0,14.0,81,0.00,,,0.00,Wunderground v.1.15,2013-04-18 15:00:00,
2013-04-18 11:05:00,64.1,58.1,30.05,South,189,5.0,14.0,81,0.00,,,0.00,Wunderground v.1.15,2013-04-18 15:05:00,
2013-04-18 11:14:00,64.1,57.8,30.05,SSW,198,5.0,13.0,80,0.00,,,0.00,Wunderground v.1.15,2013-04-18 15:14:00,
2013-04-18 11:20:00,64.0,58.1,30.05,SSW,194,5.0,13.0,81,0.00,,,0.00,Wunderground v.1.15,2013-04-18 15:20:00,
2013-04-18 11:25:00,64.0,58.1,30.05,South,170,4.0,13.0,81,0.00,,,0.00,Wunderground v.1.15,2013-04-18 15:25:00,
2013-04-18 11:30:00,64.0,58.1,30.05,WSW,246,4.0,13.0,81,0.00,,,0.00,Wunderground v.1.15,2013-04-18 15:30:00,
2013-04-18 11:35:00,64.0,58.1,30.05,SSW,198,4.0,13.0,81,0.00,,,0.00,Wunderground v.1.15,2013-04-18 15:35:00,
2013-04-18 11:40:00,64.1,58.1,30.05,South,172,4.0,13.0,81,0.00,,,0.00,Wunderground v.1.15,2013-04-18 15:40:00,
2013-04-18 11:45:00,64.1,58.5,30.05,SSW,197,5.0,13.0,82,0.00,,,0.00,Wunderground v.1.15,2013-04-18 15:45:00,
2013-04-18 11:50:00,64.1,58.1,30.05,South,184,5.0,5.0,81,0.00,,,0.00,Wunderground v.1.15,2013-04-18 15:50:00,
2013-04-18 12:00:00,64.3,57.6,30.05,South,177,4.0,4.0,79,0.00,,,0.00,Wunderground v.1.15,2013-04-18 16:00:00,
2013-04-18 12:05:00,64.4,57.7,30.05,SSW,201,5.0,5.0,79,0.00,,,0.00,Wunderground v.1.15,2013-04-18 16:05:00,
2013-04-18 12:15:00,64.7,57.3,30.05,South,182,6.0,7.0,77,0.00,,,0.00,Wunderground v.1.15,2013-04-18 16:15:00,
2013-04-18 12:20:00,64.9,57.5,30.05,South,178,5.0,5.0,77,0.00,,,0.00,Wunderground v.1.15,2013-04-18 16:20:00,
2013-04-18 12:25:00,65.7,58.3,30.04,South,182,5.0,14.0,77,0.00,,,0.00,Wunderground v.1.15,2013-04-18 16:25:00,
2013-04-18 12:30:00,65.9,58.1,30.04,South,178,5.0,5.0,76,0.00,,,0.00,Wunderground v.1.15,2013-04-18 16:30:00,
2013-04-18 12:40:00,66.3,58.9,30.04,South,183,6.0,6.0,77,0.00,,,0.00,Wunderground v.1.15,2013-04-18 16:40:00,
2013-04-18 12:45:00,66.4,58.2,30.04,SW,221,6.0,14.0,75,0.00,,,0.00,Wunderground v.1.15,2013-04-18 16:45:00,
2013-04-18 12:50:00,67.0,58.4,30.04,South,180,5.0,5.0,74,0.00,,,0.00,Wunderground v.1.15,2013-04-18 16:50:00,
2013-04-18 13:00:00,66.5,58.0,30.03,SSE,157,6.0,14.0,74,0.00,,,0.00,Wunderground v.1.15,2013-04-18 17:00:00,
2013-04-18 13:05:00,66.5,58.0,30.03,SSE,163,6.0,16.0,74,0.00,,,0.00,Wunderground v.1.15,2013-04-18 17:05:00,
2013-04-18 13:15:00,67.6,57.9,30.03,South,172,7.0,16.0,71,0.00,,,0.00,Wunderground v.1.15,2013-04-18 17:15:00,
2013-04-18 13:20:00,67.4,57.3,30.02,South,187,7.0,16.0,70,0.00,,,0.00,Wunderground v.1.15,2013-04-18 17:20:00,
2013-04-18 13:25:00,67.8,57.3,30.02,South,181,7.0,16.0,69,0.00,,,0.00,Wunderground v.1.15,2013-04-18 17:25:00,
2013-04-18 13:30:00,67.7,57.2,30.02,South,180,8.0,16.0,69,0.00,,,0.00,Wunderground v.1.15,2013-04-18 17:30:00,
2013-04-18 13:35:00,68.0,57.4,30.02,South,190,9.0,16.0,69,0.00,,,0.00,Wunderground v.1.15,2013-04-18 17:35:00,
2013-04-18 13:40:00,67.8,57.7,30.02,South,190,8.0,16.0,70,0.00,,,0.00,Wunderground v.1.15,2013-04-18 17:40:00,
2013-04-18 13:45:00,67.9,57.4,30.02,South,184,7.0,16.0,69,0.00,,,0.00,Wunderground v.1.15,2013-04-18 17:45:00,
2013-04-18 13:55:00,67.7,56.3,30.01,SSE,163,7.0,8.0,67,0.00,,,0.00,Wunderground v.1.15,2013-04-18 17:55:00,
2013-04-18 14:00:00,67.6,55.8,30.02,SSE,168,7.0,7.0,66,0.00,,,0.00,Wunderground v.1.15,2013-04-18 18:00:00,
2013-04-18 14:05:00,67.1,55.4,30.02,South,184,7.0,18.0,66,0.00,,,0.00,Wunderground v.1.15,2013-04-18 18:05:00,
2013-04-18 14:15:00,67.7,55.9,30.02,SSW,207,7.0,9.0,66,0.00,,,0.00,Wunderground v.1.15,2013-04-18 18:15:00,
2013-04-18 14:20:00,67.8,55.6,30.01,South,174,8.0,8.0,65,0.00,,,0.00,Wunderground v.1.15,2013-04-18 18:20:00,
2013-04-18 14:25:00,67.9,56.5,30.01,SSW,202,6.0,11.0,67,0.00,,,0.00,Wunderground v.1.15,2013-04-18 18:25:00,
2013-04-18 14:35:00,69.7,55.6,30.01,South,176,7.0,18.0,61,0.00,,,0.00,Wunderground v.1.15,2013-04-18 18:35:00,
2013-04-18 14:40:00,69.5,55.9,30.01,South,190,7.0,7.0,62,0.00,,,0.00,Wunderground v.1.15,2013-04-18 18:40:00,
2013-04-18 14:45:00,69.0,55.9,30.01,SSE,166,8.0,8.0,63,0.00,,,0.00,Wunderground v.1.15,2013-04-18 18:45:00,
2013-04-18 14:50:00,68.5,56.3,30.01,SSE,159,7.0,18.0,65,0.00,,,0.00,Wunderground v.1.15,2013-04-18 18:50:00,
2013-04-18 14:55:00,68.3,56.5,30.01,SSW,193,6.0,18.0,66,0.00,,,0.00,Wunderground v.1.15,2013-04-18 18:55:00,
2013-04-18 15:00:00,69.7,56.5,30.01,SSW,192,6.0,18.0,63,0.00,,,0.00,Wunderground v.1.15,2013-04-18 19:00:00,
2013-04-18 15:05:00,69.0,55.4,30.00,South,182,7.0,20.0,62,0.00,,,0.00,Wunderground v.1.15,2013-04-18 19:05:00,
2013-04-18 15:15:00,69.0,56.7,30.00,South,178,7.0,20.0,65,0.00,,,0.00,Wunderground v.1.15,2013-04-18 19:15:00,
2013-04-18 15:25:00,69.9,55.4,29.99,South,173,7.0,20.0,60,0.00,,,0.00,Wunderground v.1.15,2013-04-18 19:25:00,
2013-04-18 15:30:00,70.6,56.9,29.99,South,187,6.0,6.0,62,0.00,,,0.00,Wunderground v.1.15,2013-04-18 19:30:00,
2013-04-18 15:35:00,70.5,56.4,29.99,South,179,6.0,20.0,61,0.00,,,0.00,Wunderground v.1.15,2013-04-18 19:35:00,
2013-04-18 15:40:00,70.8,56.2,29.98,SSW,196,6.0,20.0,60,0.00,,,0.00,Wunderground v.1.15,2013-04-18 19:40:00,
2013-04-18 15:49:00,69.9,56.3,29.97,South,186,5.0,20.0,62,0.00,,,0.00,Wunderground v.1.15,2013-04-18 19:49:00,
2013-04-18 15:55:00,71.0,56.4,29.97,South,185,5.0,20.0,60,0.00,,,0.00,Wunderground v.1.15,2013-04-18 19:55:00,
2013-04-18 16:05:00,72.3,57.6,29.96,SSW,198,8.0,9.0,60,0.00,,,0.00,Wunderground v.1.15,2013-04-18 20:05:00,
2013-04-18 16:15:00,72.7,56.1,29.95,South,186,7.0,18.0,56,0.00,,,0.00,Wunderground v.1.15,2013-04-18 20:15:00,
2013-04-18 16:20:00,72.1,56.0,29.95,SSW,197,10.0,18.0,57,0.00,,,0.00,Wunderground v.1.15,2013-04-18 20:20:00,
2013-04-18 16:30:00,72.4,56.3,29.95,SSW,208,8.0,18.0,57,0.00,,,0.00,Wunderground v.1.15,2013-04-18 20:30:00,
2013-04-18 16:40:00,71.8,56.7,29.94,South,171,6.0,18.0,59,0.00,,,0.00,Wunderground v.1.15,2013-04-18 20:40:00,
2013-04-18 16:45:00,71.9,56.8,29.94,SSW,195,5.0,18.0,59,0.00,,,0.00,Wunderground v.1.15,2013-04-18 20:45:00,
2013-04-18 16:50:00,70.9,55.4,29.95,SSW,194,4.0,4.0,58,0.00,,,0.00,Wunderground v.1.15,2013-04-18 20:50:00,
2013-04-18 16:55:00,69.9,55.4,29.94,SSW,199,7.0,7.0,60,0.00,,,0.00,Wunderground v.1.15,2013-04-18 20:55:00,
2013-04-18 17:05:00,70.0,55.9,29.94,SSE,158,5.0,20.0,61,0.00,,,0.00,Wunderground v.1.15,2013-04-18 21:05:00,
2013-04-18 17:15:00,70.3,55.8,29.94,South,180,4.0,20.0,60,0.00,,,0.00,Wunderground v.1.15,2013-04-18 21:15:00,
2013-04-18 17:20:00,70.2,56.1,29.94,South,186,4.0,4.0,61,0.00,,,0.00,Wunderground v.1.15,2013-04-18 21:20:00,
2013-04-18 17:25:00,70.3,56.2,29.93,SSW,196,4.0,10.0,61,0.00,,,0.00,Wunderground v.1.15,2013-04-18 21:25:00,
2013-04-18 17:35:00,70.3,56.7,29.94,SSW,192,5.0,20.0,62,0.00,,,0.00,Wunderground v.1.15,2013-04-18 21:35:00,
2013-04-18 17:39:00,70.3,56.2,29.93,South,188,4.0,20.0,61,0.00,,,0.00,Wunderground v.1.15,2013-04-18 21:39:00,
2013-04-18 17:45:00,69.8,55.7,29.93,SSE,161,4.0,20.0,61,0.00,,,0.00,Wunderground v.1.15,2013-04-18 21:45:00,
2013-04-18 17:50:00,69.4,55.8,29.94,SSW,198,4.0,20.0,62,0.00,,,0.00,Wunderground v.1.15,2013-04-18 21:50:00,
2013-04-18 17:55:00,69.2,55.6,29.93,South,184,5.0,20.0,62,0.00,,,0.00,Wunderground v.1.15,2013-04-18 21:55:00,
2013-04-18 18:00:00,69.0,55.0,29.93,South,173,6.0,6.0,61,0.00,,,0.00,Wunderground v.1.15,2013-04-18 22:00:00,
2013-04-18 18:05:00,68.9,55.3,29.93,SSW,198,6.0,16.0,62,0.00,,,0.00,Wunderground v.1.15,2013-04-18 22:05:00,
2013-04-18 18:15:00,68.7,56.5,29.92,South,182,3.0,16.0,65,0.00,,,0.00,Wunderground v.1.15,2013-04-18 22:15:00,
2013-04-18 18:20:00,68.7,56.9,29.92,SSW,211,2.0,2.0,66,0.00,,,0.00,Wunderground v.1.15,2013-04-18 22:20:00,
2013-04-18 18:25:00,68.7,56.9,29.92,SSE,162,1.0,16.0,66,0.00,,,0.00,Wunderground v.1.15,2013-04-18 22:25:00,
2013-04-18 18:30:00,68.7,56.9,29.92,South,190,3.0,16.0,66,0.00,,,0.00,Wunderground v.1.15,2013-04-18 22:30:00,
2013-04-18 18:35:00,68.5,56.7,29.92,SSW,198,4.0,16.0,66,0.00,,,0.00,Wunderground v.1.15,2013-04-18 22:35:00,
2013-04-18 18:45:00,68.2,56.8,29.92,South,181,3.0,16.0,67,0.00,,,0.00,Wunderground v.1.15,2013-04-18 22:45:00,
2013-04-18 18:50:00,68.1,56.7,29.92,South,186,3.0,16.0,67,0.00,,,0.00,Wunderground v.1.15,2013-04-18 22:50:00,
2013-04-18 18:55:00,68.0,56.6,29.92,South,190,4.0,16.0,67,0.00,,,0.00,Wunderground v.1.15,2013-04-18 22:55:00,
2013-04-18 19:00:00,68.1,56.7,29.92,South,188,4.0,4.0,67,0.00,,,0.00,Wunderground v.1.15,2013-04-18 23:00:00,
2013-04-18 19:05:00,68.6,57.2,29.92,South,183,3.0,14.0,67,0.00,,,0.00,Wunderground v.1.15,2013-04-18 23:05:00,
2013-04-18 19:15:00,68.9,57.1,29.91,SSE,155,3.0,14.0,66,0.00,,,0.00,Wunderground v.1.15,2013-04-18 23:15:00,
2013-04-18 19:25:00,68.3,56.9,29.91,South,184,3.0,14.0,67,0.00,,,0.00,Wunderground v.1.15,2013-04-18 23:25:00,
2013-04-18 19:34:00,67.7,56.8,29.90,South,170,2.0,2.0,68,0.00,,,0.00,Wunderground v.1.15,2013-04-18 23:34:00,
2013-04-18 19:40:00,67.4,56.9,29.91,SSW,195,2.0,2.0,69,0.00,,,0.00,Wunderground v.1.15,2013-04-18 23:40:00,
2013-04-18 19:45:00,67.2,57.1,29.90,SSE,158,2.0,14.0,70,0.00,,,0.00,Wunderground v.1.15,2013-04-18 23:45:00,
2013-04-18 19:50:00,67.0,56.9,29.91,SSW,192,2.0,14.0,70,0.00,,,0.00,Wunderground v.1.15,2013-04-18 23:50:00,
2013-04-18 19:55:00,66.9,57.2,29.91,South,173,2.0,14.0,71,0.00,,,0.00,Wunderground v.1.15,2013-04-18 23:55:00,
2013-04-18 20:05:00,66.6,57.3,29.91,South,187,1.0,10.0,72,0.00,,,0.00,Wunderground v.1.15,2013-04-19 00:05:00,
2013-04-18 20:14:00,66.5,57.2,29.90,South,190,2.0,10.0,72,0.00,,,0.00,Wunderground v.1.15,2013-04-19 00:14:00,
2013-04-18 20:20:00,66.5,57.2,29.91,South,185,2.0,2.0,72,0.00,,,0.00,Wunderground v.1.15,2013-04-19 00:20:00,
2013-04-18 20:25:00,66.5,57.2,29.91,South,175,1.0,10.0,72,0.00,,,0.00,Wunderground v.1.15,2013-04-19 00:25:00,
2013-04-18 20:30:00,66.6,57.3,29.90,SSW,194,1.0,10.0,72,0.00,,,0.00,Wunderground v.1.15,2013-04-19 00:30:00,
2013-04-18 20:35:00,66.7,57.4,29.90,SSW,205,1.0,10.0,72,0.00,,,0.00,Wunderground v.1.15,2013-04-19 00:35:00,
2013-04-18 20:40:00,66.6,57.3,29.90,North,350,2.0,10.0,72,0.00,,,0.00,Wunderground v.1.15,2013-04-19 00:40:00,
2013-04-18 20:50:00,66.5,57.6,29.91,East,98,1.0,10.0,73,0.00,,,0.00,Wunderground v.1.15,2013-04-19 00:50:00,
2013-04-18 20:55:00,66.4,57.9,29.90,NW,321,1.0,10.0,74,0.00,,,0.00,Wunderground v.1.15,2013-04-19 00:55:00,
2013-04-18 21:00:00,66.3,57.8,29.90,NNW,338,0.0,10.0,74,0.00,,,0.00,Wunderground v.1.15,2013-04-19 01:00:00,
2013-04-18 21:05:00,66.2,58.0,29.91,SSE,167,1.0,10.0,75,0.00,,,0.00,Wunderground v.1.15,2013-04-19 01:05:00,
2013-04-18 21:15:00,66.2,58.4,29.91,SSW,194,2.0,2.0,76,0.00,,,0.00,Wunderground v.1.15,2013-04-19 01:15:00,
2013-04-18 21:25:00,66.0,58.6,29.91,WSW,242,1.0,8.0,77,0.00,,,0.00,Wunderground v.1.15,2013-04-19 01:25:00,
2013-04-18 21:30:00,65.9,58.8,29.91,SSW,192,1.0,1.0,78,0.00,,,0.00,Wunderground v.1.15,2013-04-19 01:30:00,
2013-04-18 21:35:00,65.8,59.1,29.90,SW,236,1.0,8.0,79,0.00,,,0.00,Wunderground v.1.15,2013-04-19 01:35:00,
2013-04-18 21:40:00,65.6,59.3,29.90,SSW,194,1.0,1.0,80,0.00,,,0.00,Wunderground v.1.15,2013-04-19 01:40:00,
2013-04-18 21:45:00,65.5,59.2,29.90,West,271,1.0,8.0,80,0.00,,,0.00,Wunderground v.1.15,2013-04-19 01:45:00,
2013-04-18 21:50:00,65.4,59.4,29.89,SSW,205,1.0,8.0,81,0.00,,,0.00,Wunderground v.1.15,2013-04-19 01:50:00,
2013-04-18 21:59:00,65.3,59.3,29.89,SSW,200,2.0,8.0,81,0.00,,,0.00,Wunderground v.1.15,2013-04-19 01:59:00,
2013-04-18 22:05:00,65.3,59.3,29.90,SSW,205,3.0,14.0,81,0.00,,,0.00,Wunderground v.1.15,2013-04-19 02:05:00,
2013-04-18 22:15:00,65.4,59.4,29.89,West,265,5.0,10.0,81,0.00,,,0.00,Wunderground v.1.15,2013-04-19 02:15:00,
2013-04-18 22:20:00,65.4,59.4,29.90,South,190,5.0,10.0,81,0.00,,,0.00,Wunderground v.1.15,2013-04-19 02:20:00,
2013-04-18 22:25:00,65.4,59.4,29.90,South,176,5.0,10.0,81,0.00,,,0.00,Wunderground v.1.15,2013-04-19 02:25:00,
2013-04-18 22:34:00,65.3,60.0,29.89,East,83,4.0,10.0,83,0.00,,,0.00,Wunderground v.1.15,2013-04-19 02:34:00,
2013-04-18 22:45:00,64.9,59.9,29.89,South,188,5.0,10.0,84,0.00,,,0.00,Wunderground v.1.15,2013-04-19 02:45:00,
2013-04-18 22:50:00,64.8,59.9,29.88,SW,221,5.0,10.0,84,0.00,,,0.00,Wunderground v.1.15,2013-04-19 02:50:00,
2013-04-18 22:55:00,64.8,59.9,29.88,South,184,3.0,10.0,84,0.00,,,0.00,Wunderground v.1.15,2013-04-19 02:55:00,
2013-04-18 23:00:00,64.7,59.8,29.88,SSW,197,5.0,5.0,84,0.00,,,0.00,Wunderground v.1.15,2013-04-19 03:00:00,
2013-04-18 23:05:00,64.6,59.7,29.88,SSW,194,6.0,10.0,84,0.00,,,0.00,Wunderground v.1.15,2013-04-19 03:05:00,
2013-04-18 23:15:00,64.5,59.9,29.88,South,188,6.0,24.0,85,0.00,,,0.00,Wunderground v.1.15,2013-04-19 03:15:00,
2013-04-18 23:25:00,64.5,59.9,29.88,South,182,5.0,24.0,85,0.00,,,0.00,Wunderground v.1.15,2013-04-19 03:25:00,
2013-04-18 23:30:00,64.5,59.9,29.88,South,189,4.0,4.0,85,0.00,,,0.00,Wunderground v.1.15,2013-04-19 03:30:00,
2013-04-18 23:35:00,64.5,59.9,29.88,SW,232,3.0,24.0,85,0.00,,,0.00,Wunderground v.1.15,2013-04-19 03:35:00,
2013-04-18 23:40:00,64.4,59.8,29.87,SSW,209,3.0,24.0,85,0.00,,,0.00,Wunderground v.1.15,2013-04-19 03:40:00,
2013-04-18 23:45:00,64.4,59.8,29.87,SSW,193,4.0,24.0,85,0.00,,,0.00,Wunderground v.1.15,2013-04-19 03:45:00,
2013-04-18 23:54:00,64.2,59.9,29.86,NNW,337,1.0,24.0,86,0.00,,,0.00,Wunderground v.1.15,2013-04-19 03:54:00,